RH
25 21 18 16 15 16 17 16 15 16 16 16 16 16 15 14 21 38 66 85 86 86 85 81 89 92 89 93 98 97 87 70 56 57 73 81 84 91 93 95 99 98 98 96 95 97 99 100 97 89 82 74 63 57 58 57 54 52 50 47 45 43 43 42 42 42 41 38 35 31 25 18 13 12 9 5 4 4 4 5 5 5 5 5 4
27 24 22 22 21 21 21 21 21 20 20 20 19 19 19 17 17 22 48 86 99 93 94 94 97 99 98 100 98 98 100 95 78 59 59 76 90 97 96 94 96 98 101 99 96 98 99 100 99 95 91 86 81 80 74 63 57 55 53 51 49 49 48 46 43 43 42 40 36 30 24 17 11 8 6 4 3 4 5 5 5 5 5 5 5
31 29 29 30 29 28 28 27 26 25 24 24 23 22 22 21 20 18 29 68 100 100 96 99 100 99 99 101 98 97 97 97 97 87 75 75 85 98 101 96 95 95 98 99 96 97 98 99 100 99 98 96 96 96 89 78 67 58 56 57 57 55 53 50 47 46 45 42 38 31 24 17 11 7 4 3 4 4 5 5 5 5 5 5 5
35 35 37 37 36 35 34 33 32 31 30 30 29 28 27 26 25 23 22 44 80 100 101 98 99 100 100 101 98 99 100 97 97 100 98 87 78 89 102 101 97 97 99 99 97 98 99 98 98 100 100 99 100 100 98 92 79 67 64 63 63 62 59 51 47 49 48 44 40 34 26 18 11 8 4 3 4 4 5 5 5 5 5 5 5
42 42 42 42 42 40 39 38 37 36 35 34 34 33 33 33 32 32 30 32 51 78 97 102 100 99 99 101 101 99 99 100 99 98 101 98 82 77 91 101 101 99 100 100 99 100 99 98 98 99 100 100 100 100 100 97 91 87 81 71 66 68 69 61 50 47 48 47 44 37 28 21 16 10 5 4 4 4 5 5 6 5 5 5 4
47 47 47 46 46 45 44 44 43 42 41 39 38 38 38 39 40 41 40 39 39 49 69 88 99 102 100 99 100 101 99 98 101 100 99 101 93 78 79 93 100 100 100 100 100 100 99 99 99 99 99 100 100 100 100 99 99 99 93 84 75 73 80 79 65 54 51 47 46 41 31 23 18 12 7 6 5 5 6 6 6 6 5 6 5
54 54 54 54 53 53 52 51 50 49 47 46 45 45 44 44 45 45 45 45 44 43 47 59 75 89 99 101 98 99 100 99 100 101 99 99 101 93 85 88 96 100 100 99 100 100 100 100 100 100 100 99 100 100 100 100 99 100 99 96 90 85 85 84 82 78 68 54 45 42 36 26 19 16 14 13 10 8 7 6 6 6 5 5 5
60 61 61 61 60 60 60 58 57 56 55 55 55 53 52 51 50 50 49 47 48 49 48 48 52 63 80 96 101 100 100 100 100 100 100 99 99 101 98 93 93 94 96 99 100 100 100 100 99 100 100 99 100 100 100 100 99 100 100 99 99 97 87 79 84 85 77 70 60 46 40 32 23 19 18 17 14 11 9 7 6 6 6 5 5
67 67 67 68 67 66 66 64 63 62 61 61 61 60 59 58 57 56 55 54 52 52 52 52 51 51 58 72 87 97 100 101 100 97 98 100 100 100 101 98 93 87 89 95 99 100 100 100 100 100 100 100 100 99 100 100 99 99 100 100 100 101 95 83 75 69 71 83 78 56 43 40 30 22 18 15 14 10 8 8 7 6 6 5 5
74 74 74 74 73 73 72 70 69 66 64 64 63 63 63 62 61 60 59 59 57 55 54 54 54 53 53 55 62 75 87 96 100 100 99 100 100 99 100 101 99 92 88 91 96 99 99 100 100 100 100 100 100 100 99 99 100 100 100 100 99 100 101 95 83 77 83 94 91 68 50 45 40 32 27 23 21 18 12 8 7 7 6 6 6
81 80 79 78 77 76 74 72 71 69 66 65 63 61 61 60 60 59 59 58 57 56 55 54 53 53 53 53 53 55 63 73 83 92 97 100 100 100 99 99 100 98 91 90 95 100 100 100 100 100 100 100 100 100 99 99 99 99 99 100 100 99 101 100 95 94 97 99 98 80 55 47 46 42 39 33 27 24 18 12 8 7 7 6 6
87 85 84 82 80 78 77 75 73 71 69 67 64 62 60 59 57 56 55 55 55 54 53 52 50 49 48 49 49 49 51 54 59 68 77 84 88 93 99 101 101 99 93 89 93 97 99 100 99 99 100 100 100 99 99 100 99 98 99 99 100 100 100 100 99 99 100 99 101 89 66 54 51 48 47 41 32 24 17 12 9 9 9 8 7
89 87 86 83 81 78 75 73 71 68 67 65 63 60 58 56 56 55 54 53 52 50 50 49 48 46 44 42 42 43 44 45 47 51 56 60 64 72 84 92 95 99 99 97 96 95 96 99 100 100 100 99 100 100 99 100 99 99 100 100 100 100 99 100 99 100 100 99 100 97 85 72 63 59 57 51 43 33 21 14 11 10 11 10 8
81 77 73 69 66 64 62 59 57 56 54 54 54 53 51 49 47 46 47 47 48 48 46 45 44 43 42 39 37 35 35 36 38 40 44 48 52 57 63 68 74 83 90 96 99 99 99 99 99 100 100 100 99 100 100 100 100 100 100 100 100 100 100 100 100 99 100 100 100 100 98 89 80 74 70 62 54 46 35 24 14 10 12 12 10
63 61 60 59 57 55 54 51 47 45 42 42 43 43 42 42 40 38 36 35 36 39 41 41 39 38 36 35 34 32 31 30 30 31 32 36 41 47 53 57 61 65 71 78 86 94 99 100 100 100 100 100 100 100 100 99 100 100 100 100 100 100 100 100 100 99 99 100 100 100 100 98 92 86 81 75 67 58 49 37 22 12 11 12 12
57 59 59 60 60 57 54 50 45 40 37 35 35 34 33 33 32 32 31 29 28 28 31 33 35 34 33 31 29 28 27 27 27 27 26 27 29 33 40 47 53 57 60 65 72 81 89 94 98 100 100 100 99 99 100 100 100 100 100 100 99 99 100 100 99 100 99 99 100 100 100 100 98 94 89 86 82 71 58 47 34 21 13 11 12
56 58 59 60 59 58 56 53 50 45 40 35 32 30 29 28 28 26 26 25 24 23 23 24 27 29 31 33 32 29 25 24 24 25 25 25 25 26 29 34 40 47 51 55 61 68 76 81 86 92 98 100 99 97 98 100 100 100 100 100 98 98 100 100 100 100 99 100 100 100 99 99 100 99 95 94 93 84 68 55 45 33 21 14 11
59 62 64 65 63 61 59 55 54 50 41 34 31 34 37 36 32 27 23 22 20 20 20 20 20 21 23 27 31 33 31 28 25 23 23 23 23 23 24 26 29 34 40 44 49 54 62 71 76 80 86 93 97 98 98 99 100 100 100 100 99 99 99 99 100 100 99 99 101 100 100 99 99 100 99 98 99 93 79 65 54 44 33 22 14
76 72 68 65 61 60 60 56 52 45 35 28 33 48 56 53 47 40 33 27 22 20 19 19 19 19 19 19 22 26 30 32 30 27 24 22 20 20 21 22 24 26 29 33 37 40 45 54 65 73 78 82 87 93 97 99 99 100 100 100 100 100 100 99 100 100 99 100 100 100 100 100 99 100 100 99 100 99 91 78 67 57 48 38 26
85 80 74 69 66 64 60 54 43 33 28 27 36 54 66 68 66 60 54 45 35 28 25 23 22 21 20 19 18 19 21 25 28 29 29 26 23 20 18 19 20 22 24 26 28 30 32 36 45 57 69 77 81 84 90 97 99 99 100 100 100 100 100 100 100 100 100 100 100 100 100 100 100 100 101 100 100 100 98 93 85 76 68 57 45
78 73 71 69 68 64 56 47 38 31 32 35 42 52 62 71 74 73 72 63 49 39 34 32 30 27 24 21 19 19 18 18 20 21 24 26 26 23 20 18 17 18 20 21 24 25 27 27 29 36 47 62 76 81 84 89 94 97 98 99 100 100 100 99 100 100 100 100 100 100 100 100 100 100 100 100 100 99 100 100 98 95 88 77 64
63 57 54 53 51 49 45 44 44 47 55 62 67 67 65 67 67 68 69 64 55 48 42 37 34 31 30 28 24 22 19 18 18 17 18 19 21 22 21 20 18 17 16 17 19 22 25 25 24 25 29 39 55 72 82 85 86 89 94 97 99 99 100 100 100 99 100 100 100 100 100 100 100 100 99 99 100 99 99 99 100 100 97 91 82
49 44 43 42 41 39 39 40 44 55 67 78 88 91 88 82 74 68 65 63 60 56 52 52 50 44 42 42 38 33 28 24 21 19 18 16 16 17 18 18 18 18 16 15 15 16 21 25 25 24 23 25 31 45 65 80 85 84 85 91 98 100 100 100 100 100 100 99 100 100 99 99 99 100 100 99 99 100 100 100 100 100 99 98 96
44 44 43 42 39 37 37 37 41 48 54 61 69 76 81 84 84 80 73 68 66 63 68 82 86 75 64 59 57 52 45 37 30 26 23 21 18 17 16 16 16 17 16 16 15 14 14 20 26 26 24 23 24 25 36 55 75 85 85 84 90 97 101 101 99 100 100 100 100 100 99 99 99 100 100 100 100 99 98 98 99 100 100 100 100
49 48 46 43 40 38 38 38 41 45 49 53 55 56 59 64 71 76 74 71 70 69 74 88 98 98 86 75 71 68 59 49 41 35 32 30 26 23 19 17 15 15 15 15 15 15 13 13 20 27 28 24 23 23 22 28 44 66 82 86 86 88 94 98 100 101 100 99 100 100 100 99 100 100 100 100 100 99 98 98 99 100 100 100 100
54 50 47 46 44 43 44 45 48 51 54 54 54 54 56 59 62 66 66 69 73 72 68 70 76 85 88 86 85 79 68 55 43 33 30 30 29 28 26 22 19 16 15 15 14 14 14 11 11 20 29 28 24 24 24 22 23 34 53 72 84 88 87 88 93 98 101 101 99 99 100 100 100 101 99 99 100 100 99 97 97 99 100 100 100
53 52 51 51 51 52 54 57 59 60 58 56 53 53 57 61 62 61 61 69 79 80 74 67 64 66 75 84 88 81 69 55 40 31 29 28 26 25 25 25 23 20 17 16 16 15 13 13 10 11 21 30 30 25 25 25 23 21 26 38 58 76 87 88 86 88 93 98 100 100 100 99 100 100 100 99 99 100 100 98 97 98 100 100 100
54 59 62 62 62 63 65 68 69 67 63 61 59 58 60 62 61 60 61 69 82 88 84 79 73 69 72 77 78 71 61 50 40 35 33 31 28 25 23 22 22 22 20 18 18 18 14 12 11 8 12 24 32 30 26 26 25 24 22 22 28 43 63 79 86 88 88 90 94 97 100 100 100 100 100 100 100 100 100 99 98 99 100 99 99
63 67 72 74 75 75 75 76 73 69 67 65 63 62 65 66 65 65 67 71 80 88 90 88 84 78 75 73 69 63 57 50 45 40 35 33 32 30 26 22 20 20 20 20 21 21 18 14 12 10 9 16 28 33 30 28 28 27 25 23 22 23 31 46 64 79 88 91 91 92 94 97 99 100 100 100 100 100 100 100 99 100 100 99 100
74 76 78 80 80 78 76 74 72 71 73 73 70 68 71 74 74 73 75 77 81 85 87 87 85 82 79 75 71 67 63 59 54 49 43 39 36 34 30 25 21 19 20 21 22 24 24 19 15 13 11 13 22 32 34 31 30 31 30 27 24 22 21 24 32 47 64 80 89 93 95 96 98 100 100 100 100 100 100 100 100 100 100 100 100
81 82 82 82 78 75 74 75 77 81 85 87 85 81 80 82 83 83 83 82 81 81 81 80 77 76 75 73 71 69 66 64 62 61 59 53 45 39 33 27 24 23 23 24 25 26 28 27 21 17 15 15 19 29 37 36 32 32 32 30 28 25 23 22 21 24 33 47 62 76 87 94 99 101 101 100 100 100 100 100 100 100 100 100 99
86 86 85 83 79 78 83 89 92 92 92 94 93 90 88 87 87 87 85 82 79 79 81 81 81 79 77 76 75 74 73 73 73 74 73 68 60 50 43 37 32 30 30 30 30 32 35 35 31 26 22 21 22 30 37 39 37 34 33 31 30 28 26 24 22 21 21 25 33 45 59 73 86 94 99 100 100 100 100 101 101 100 100 99 100
91 90 89 88 86 86 90 95 96 95 95 96 96 94 92 91 89 86 85 84 82 82 82 82 85 86 85 84 83 83 82 81 82 84 84 82 77 70 66 60 50 44 43 42 45 49 52 49 42 37 35 32 31 35 40 41 39 37 35 32 30 29 28 27 25 24 22 21 22 25 32 42 55 69 82 92 98 100 100 100 100 100 100 100 100
95 92 92 92 91 90 91 92 94 96 97 97 98 98 97 95 94 91 88 87 86 86 85 84 85 87 88 90 90 90 90 90 90 93 95 95 93 91 90 87 80 73 69 67 70 73 73 66 56 49 48 47 45 46 48 46 43 39 37 35 32 30 29 29 29 27 25 24 23 23 23 25 30 38 49 63 77 89 97 100 101 100 100 100 100
99 97 95 94 92 92 92 94 97 99 99 99 100 100 99 97 94 91 90 90 90 89 90 90 88 88 90 93 94 95 96 98 99 101 102 103 102 100 99 99 95 91 88 88 90 90 88 83 75 68 62 58 59 59 55 50 46 43 40 37 34 32 30 29 30 30 29 27 25 24 23 22 23 25 28 33 43 55 70 85 95 100 101 100 100
102 101 98 95 94 95 97 97 98 100 101 101 100 99 97 95 93 94 93 94 94 93 94 94 92 91 92 93 94 95 97 100 102 103 104 104 103 102 102 100 97 96 97 98 97 97 98 95 91 85 76 68 67 67 62 56 51 47 44 41 37 35 33 31 31 31 32 31 29 26 24 23 22 22 22 24 26 30 37 49 64 80 93 100 100
102 101 97 96 97 98 100 99 98 99 99 99 99 98 97 95 94 96 96 96 96 96 96 96 93 93 94 94 95 97 98 101 102 101 103 103 103 103 103 102 100 100 101 101 99 101 103 101 98 94 86 77 72 70 68 64 60 56 50 45 40 38 37 35 33 33 34 33 33 31 29 27 25 23 23 23 25 26 26 28 33 44 65 88 99
102 100 96 96 97 97 99 98 97 97 97 99 100 99 99 99 99 100 98 97 96 96 95 95 94 94 96 96 98 99 99 99 99 99 101 101 101 101 101 101 101 101 101 102 102 103 103 103 102 100 96 89 81 77 78 79 76 69 59 50 46 43 40 38 37 37 36 35 34 33 33 32 30 29 28 28 28 28 27 26 25 25 36 58 77
99 101 99 98 96 94 96 100 100 99 99 101 103 102 102 101 101 101 99 97 96 95 95 95 95 96 98 99 100 100 99 98 98 99 100 100 100 100 100 100 101 100 100 101 102 102 102 101 102 101 101 99 94 93 96 96 91 84 71 60 53 47 43 41 39 38 37 36 35 35 35 35 34 34 36 36 35 35 31 28 27 27 28 30 40
93 96 97 98 98 96 97 99 100 101 102 103 103 102 102 101 100 99 97 97 99 98 97 97 97 98 100 101 100 100 100 100 100 100 100 100 100 100 100 100 100 100 100 100 100 100 100 100 100 100 100 100 99 101 104 103 98 93 84 73 64 56 51 47 44 42 39 37 38 38 38 39 39 40 42 43 43 42 38 33 32 31 29 25 26
93 94 95 96 98 99 98 98 99 100 101 101 101 100 98 99 101 101 99 98 99 101 100 99 99 99 100 100 100 100 100 100 100 101 100 100 100 100 100 100 100 100 100 100 100 100 100 100 100 100 100 100 101 102 104 103 98 93 88 81 73 65 61 57 53 49 45 43 44 44 44 46 47 47 48 48 47 45 43 41 39 35 32 33 34
95 96 97 97 98 96 95 96 99 101 100 100 100 99 98 101 103 103 101 98 99 102 101 100 100 100 100 100 100 100 100 100 101 100 100 100 100 100 100 100 100 100 100 100 100 100 100 100 100 100 100 101 103 104 103 99 94 89 87 83 76 71 69 65 59 53 50 50 51 51 51 53 54 54 54 52 50 49 48 45 43 41 39 39 39
98 98 99 100 98 94 92 94 98 101 101 101 101 99 99 102 103 103 102 99 98 100 101 102 103 103 101 100 100 101 100 101 101 100 100 100 100 100 100 100 100 100 100 100 100 100 100 100 100 100 100 100 102 104 102 98 93 88 86 82 78 74 71 67 60 56 55 57 56 55 56 58 59 59 58 57 56 55 55 52 48 46 46 44 40
102 101 101 102 99 94 94 95 98 101 101 101 101 101 100 101 103 105 102 98 98 100 101 102 103 102 101 101 101 102 101 100 101 101 100 100 100 100 100 100 100 100 100 100 100 100 100 100 100 100 100 100 101 102 102 101 99 96 93 88 84 79 75 71 66 62 62 63 62 62 63 63 62 62 61 62 64 65 66 64 59 56 55 51 47
102 103 103 103 99 97 98 97 98 101 101 100 101 103 102 101 103 104 102 98 98 99 99 101 102 100 101 101 102 103 101 100 101 101 100 100 100 100 100 100 100 100 100 100 100 100 100 100 100 100 100 100 100 100 100 101 102 102 101 99 95 90 86 82 77 72 71 73 75 75 75 74 71 69 69 70 73 76 76 72 69 67 65 59 58
102 103 105 104 102 101 101 98 98 100 100 100 101 103 104 103 103 103 101 99 99 99 100 101 101 100 101 103 104 103 101 100 101 101 100 101 101 100 100 100 100 100 100 100 100 100 100 100 100 100 100 100 100 100 100 100 100 101 102 102 102 100 98 94 87 81 82 85 86 86 87 87 85 83 83 84 83 83 81 77 74 73 71 72 79
103 105 105 104 103 103 101 99 99 100 99 100 101 103 103 103 103 104 101 100 100 101 100 101 102 103 104 105 104 102 101 101 101 100 100 101 101 100 100 100 100 101 100 100 100 100 100 100 100 100 100 100 100 100 100 100 100 100 100 101 101 102 103 101 95 90 89 91 92 92 92 94 95 94 93 92 89 86 84 81 79 76 78 86 96
101 105 104 103 102 102 101 101 101 102 101 100 102 104 103 101 102 103 102 101 101 101 101 102 103 104 105 104 102 101 100 101 101 100 100 101 100 100 101 102 103 102 101 101 100 100 100 100 100 100 100 100 100 100 100 100 100 100 101 102 101 101 103 103 100 95 93 92 94 95 96 98 100 98 95 93 90 89 88 86 84 86 91 97 101
98 102 103 102 101 102 102 102 103 104 103 101 101 104 104 101 100 100 100 100 99 98 99 101 103 104 103 102 100 100 100 101 102 101 100 100 100 100 100 102 103 104 103 102 101 100 100 100 100 100 100 101 101 100 100 100 100 100 102 103 103 102 103 104 102 98 95 92 93 95 97 99 100 98 95 93 93 93 92 88 87 93 98 99 100
94 97 97 98 101 103 103 103 103 103 103 102 102 102 103 102 100 99 99 100 98 95 96 99 101 103 103 102 101 102 101 100 101 101 100 100 100 100 100 100 101 102 103 103 102 101 100 100 101 100 101 102 102 101 100 100 100 100 100 100 102 104 104 104 103 101 97 93 92 93 94 94 95 94 93 94 95 96 94 90 90 95 99 99 99
88 90 90 92 97 102 105 105 103 101 101 102 103 102 101 101 101 99 100 100 98 94 94 96 99 101 103 103 104 104 103 100 100 101 101 100 100 100 100 100 100 100 101 102 103 102 100 100 101 101 101 102 102 101 101 101 101 100 98 97 100 103 103 102 101 101 99 95 93 95 96 95 93 92 91 93 95 97 97 94 92 94 98 101 102
Wind_Speed
39 35 31 30 28 26 26 26 26 26 25 26 27 28 32 39 45 48 47 46 45 44 42 39 37 38 38 37 37 36 36 36 36 37 39 40 40 39 40 41 40 39 38 38 39 39 37 36 36 35 34 32 32 32 31 29 29 30 31 31 32 32 33 34 34 34 34 34 34 33 33 33 34 35 36 37 37 37 36 35 35 35 34 33 32
35 31 28 26 25 24 24 24 24 24 24 24 25 26 27 31 37 44 48 47 45 45 44 40 37 38 39 39 40 38 34 32 32 33 37 40 40 39 38 39 40 39 37 37 40 41 39 37 36 36 37 34 33 34 33 32 30 30 30 30 30 31 32 34 35 34 34 33 32 32 33 34 35 37 38 39 39 38 37 36 36 36 35 34 33
30 27 24 22 21 21 21 21 21 21 22 22 22 23 25 26 29 35 44 47 45 43 43 42 39 37 38 40 40 40 37 34 31 30 34 39 41 40 39 39 39 40 39 39 40 42 41 38 36 37 38 37 36 36 35 34 33 32 32 31 29 29 31 33 34 33 33 32 31 33 33 34 35 38 40 40 39 38 37 37 37 38 37 36 34
25 23 20 19 18 18 18 17 17 17 17 18 18 19 19 21 23 27 35 43 46 43 41 42 43 41 38 36 37 38 39 39 37 34 34 39 41 42 41 39 40 39 39 40 40 42 44 42 39 39 40 39 38 38 38 36 34 33 34 33 31 29 29 30 31 31 32 33 33 34 34 35 37 37 37 38 38 39 39 39 39 39 38 37 36
21 19 18 17 16 15 15 14 14 13 14 14 14 14 13 13 14 18 23 32 41 44 43 40 41 43 42 39 37 37 37 39 41 40 38 39 42 44 43 40 39 38 39 39 38 40 44 45 44 42 42 41 39 40 41 39 36 35 35 35 33 31 29 28 29 30 31 32 33 34 35 36 35 33 35 38 40 40 40 39 40 40 40 39 38
17 16 15 14 13 13 13 12 12 11 11 11 11 10 10 9 8 9 12 17 24 34 41 44 43 43 44 42 40 37 36 36 39 41 41 41 42 44 46 44 42 39 38 38 37 37 41 44 46 45 44 43 42 43 42 40 39 37 36 36 34 33 32 31 30 29 29 31 33 34 35 35 33 32 36 39 40 41 41 41 42 42 41 41 40
13 12 11 11 11 10 10 10 11 11 11 10 10 10 9 9 8 7 7 8 10 15 23 32 40 44 45 44 41 36 34 33 34 37 39 41 43 44 45 47 45 43 41 39 38 38 39 42 46 46 44 44 45 45 45 43 42 39 36 36 35 34 35 36 33 30 30 32 33 34 35 36 36 35 36 38 40 41 42 43 43 43 43 42 41
10 9 8 8 8 9 9 9 10 10 11 11 11 12 12 11 11 10 10 9 8 8 9 13 20 30 38 44 44 39 33 33 38 43 42 41 41 42 45 47 47 47 46 43 42 41 41 43 45 46 46 45 46 47 47 47 44 41 39 37 37 37 38 38 35 34 34 33 33 34 35 37 38 38 38 39 41 42 43 44 44 44 43 43 42
7 7 7 7 7 8 8 9 10 11 12 12 13 13 14 14 14 14 14 13 13 12 11 10 10 12 20 30 41 44 40 35 36 39 42 42 41 39 42 45 47 48 49 48 46 43 41 42 44 46 46 46 46 47 48 49 47 44 42 41 40 39 39 38 37 36 36 34 35 35 36 37 39 40 40 42 44 45 45 45 44 43 44 43 42
7 7 7 7 8 9 9 10 11 12 13 14 16 16 17 17 17 17 17 17 17 17 16 15 14 12 12 15 23 34 41 41 39 35 34 36 39 41 42 45 48 50 50 51 50 47 43 41 41 43 44 44 44 45 47 48 49 48 46 45 43 42 40 39 38 37 37 38 38 37 38 39 40 41 41 42 42 44 45 46 45 44 44 42 41
10 11 11 11 12 12 13 13 13 14 14 16 17 18 20 20 21 22 22 21 21 21 21 21 20 19 18 17 17 19 25 32 39 41 39 36 36 37 37 38 43 49 52 53 52 51 48 45 42 41 42 44 44 44 45 47 48 50 50 49 47 46 45 42 42 42 43 43 42 41 41 42 42 42 40 39 40 41 43 44 45 45 44 43 42
15 17 18 19 20 20 21 22 22 21 22 22 21 21 22 22 23 24 25 26 26 25 25 25 25 25 25 24 24 23 22 23 26 33 38 40 40 40 39 36 37 40 47 52 54 54 52 51 48 44 43 45 45 44 44 45 47 49 51 51 51 50 49 48 48 48 47 46 45 42 42 42 42 42 41 39 40 41 42 44 45 45 46 45 44
24 26 27 29 30 31 32 33 33 33 33 32 32 31 30 29 27 26 25 26 27 28 29 29 28 28 28 28 28 28 29 28 27 27 29 32 35 39 41 42 41 39 40 44 48 51 53 54 54 51 48 48 48 45 43 42 43 45 47 49 52 53 52 52 52 51 49 48 47 43 42 42 43 43 42 40 40 40 43 45 46 47 47 46 46
34 35 37 39 40 40 41 42 42 42 42 41 40 39 38 37 35 33 31 28 26 25 27 29 30 31 30 30 29 30 31 32 32 32 32 31 31 32 35 38 40 40 40 41 42 44 47 49 52 53 52 51 50 47 44 42 41 41 43 47 49 52 53 53 52 52 51 50 48 46 45 45 44 43 42 42 41 42 43 45 46 48 49 48 48
42 42 43 43 44 45 45 46 47 48 49 49 48 48 46 45 43 41 40 38 34 29 25 24 25 28 29 30 30 30 30 32 33 34 35 36 36 35 35 35 36 37 39 40 41 42 44 45 46 47 49 51 50 49 47 46 44 42 43 45 48 49 50 51 51 53 54 52 49 49 48 47 46 45 44 44 43 43 43 43 45 48 50 51 51
44 43 44 44 44 45 45 47 50 52 54 55 55 56 55 54 52 49 47 46 44 42 37 30 25 24 24 26 28 29 29 30 31 33 34 35 37 38 39 38 38 38 38 39 39 39 42 44 45 46 47 48 50 51 50 49 48 47 46 45 47 47 47 48 48 50 52 53 51 50 50 49 48 47 46 45 45 45 44 44 45 48 50 51 52
42 43 43 44 44 45 46 47 50 52 54 57 59 59 59 60 59 58 56 53 51 50 49 45 39 33 28 26 27 28 28 29 29 31 32 33 34 37 39 40 40 41 41 41 40 39 40 42 45 47 48 49 50 52 53 51 50 51 51 49 48 48 47 46 45 46 49 50 51 51 51 51 51 51 50 48 47 46 46 46 46 47 49 51 53
41 42 42 43 44 45 46 48 49 50 54 57 57 55 55 57 58 60 61 60 59 56 55 54 52 48 42 37 33 31 31 31 30 31 32 32 33 33 35 38 41 42 43 43 42 42 42 42 43 45 48 50 51 53 54 55 53 52 53 53 52 50 49 48 47 48 49 50 51 51 52 53 53 54 53 51 50 49 48 48 48 47 48 50 53
38 39 41 42 44 44 46 48 50 53 55 56 52 47 47 49 52 56 58 60 61 61 59 58 57 56 54 50 46 41 38 36 36 35 35 34 34 34 34 35 37 40 43 44 44 43 43 44 44 44 45 47 50 52 54 55 54 51 51 52 54 53 52 50 49 49 50 52 53 53 53 53 53 54 55 54 51 51 51 50 49 49 49 50 51
37 39 40 41 42 43 45 48 52 55 55 53 48 43 42 44 46 49 52 54 56 57 57 57 56 56 56 56 55 52 48 45 43 42 41 40 39 38 38 37 37 38 40 43 44 45 45 45 46 46 45 45 46 49 52 54 55 54 52 51 51 53 53 52 50 50 50 51 53 55 56 56 54 53 56 57 55 53 52 52 51 51 52 52 52
40 41 42 43 44 45 49 52 54 53 50 47 43 41 41 41 43 44 46 49 50 51 52 52 52 53 53 54 55 56 56 54 51 49 48 47 45 45 44 42 41 40 39 40 42 44 45 45 46 47 47 47 46 46 48 51 54 56 56 54 52 51 53 53 53 52 51 51 52 53 56 57 57 55 54 57 60 58 55 54 54 55 56 56 55
44 45 46 49 50 53 55 55 52 48 43 40 39 39 40 40 42 43 44 46 47 47 48 48 49 50 51 51 51 53 55 56 56 55 54 52 51 50 50 48 46 45 43 41 41 42 45 46 47 47 48 48 48 47 47 47 50 53 56 58 57 55 54 53 54 54 54 53 53 53 54 55 56 57 55 54 58 61 60 58 57 58 59 59 57
47 48 51 53 54 55 55 53 49 43 40 38 38 39 40 42 43 44 45 45 45 46 46 45 45 46 47 47 47 48 50 52 54 56 56 56 55 55 54 53 51 49 48 46 44 43 44 46 48 48 48 49 49 49 49 48 48 49 51 55 58 59 57 56 55 55 55 55 55 56 57 56 55 56 56 54 55 58 62 63 61 60 59 59 58
49 51 54 55 55 54 52 50 46 43 41 41 41 43 44 46 46 46 45 44 44 44 42 42 42 43 44 44 44 45 46 48 50 51 54 55 56 56 56 56 56 53 51 50 48 46 44 45 48 49 49 48 49 50 51 50 50 49 49 50 53 56 58 59 59 57 56 55 55 56 58 59 57 56 56 56 55 55 57 61 64 64 63 61 58
52 55 56 54 53 52 49 46 44 44 45 45 47 47 47 48 48 47 46 45 43 41 40 40 41 42 43 43 43 43 43 44 46 48 49 51 54 55 55 55 56 56 54 51 50 50 48 46 47 49 50 50 49 49 51 52 52 51 51 50 50 51 53 56 59 60 59 58 56 56 58 59 59 58 56 55 55 55 55 56 59 61 63 64 62
55 55 53 51 50 47 45 44 45 46 48 49 51 50 48 47 47 47 47 45 44 43 42 43 43 43 44 43 43 44 44 45 46 48 50 51 52 53 54 54 55 56 56 53 51 50 50 49 48 48 50 51 51 50 50 51 52 52 52 52 52 51 51 52 54 56 59 60 59 58 58 58 58 58 58 56 55 55 55 56 55 55 56 60 63
53 50 47 46 45 44 44 45 47 48 50 51 51 50 48 47 47 46 46 46 46 46 47 48 47 47 46 45 45 46 47 48 49 50 53 54 54 54 55 56 55 55 55 53 51 51 51 51 50 49 49 51 52 52 50 50 51 52 53 53 53 53 52 51 51 52 54 56 58 58 58 59 58 58 58 57 56 56 56 56 56 54 53 54 58
47 44 43 43 44 45 47 48 50 52 53 52 51 49 48 48 47 47 46 46 47 49 50 50 50 50 49 49 49 50 51 52 52 55 57 57 56 55 56 57 58 57 55 53 51 51 52 52 52 51 51 51 52 53 52 51 50 51 53 54 54 54 54 53 52 52 51 52 53 54 55 56 57 57 57 57 56 56 56 56 56 55 54 54 55
42 41 42 43 45 48 49 51 52 53 53 52 50 49 49 49 49 49 48 49 49 50 52 52 52 53 53 54 55 56 57 58 59 62 63 61 59 57 57 57 59 59 57 54 51 51 52 53 53 53 53 52 52 53 53 53 51 50 51 53 54 54 54 55 54 54 53 52 51 51 51 52 52 53 54 55 56 56 56 57 56 56 56 55 55
40 41 43 45 49 51 51 51 51 50 50 50 50 49 50 50 51 51 52 52 53 54 55 57 57 58 59 60 61 63 64 66 67 68 67 65 62 60 58 57 58 59 58 56 53 51 51 53 53 54 54 53 53 53 53 54 53 51 51 52 53 54 55 55 55 55 55 54 53 52 51 50 50 49 50 51 52 53 55 56 57 56 56 56 55
41 43 46 49 52 51 50 49 48 48 49 51 52 52 52 53 54 54 56 56 57 58 59 60 61 61 62 63 65 66 68 68 68 67 64 62 60 58 56 55 56 57 56 54 52 51 51 51 52 53 54 54 54 53 53 53 53 53 52 52 52 53 54 54 55 55 56 56 56 55 53 52 50 49 49 49 49 50 52 53 55 56 56 56 56
44 47 51 53 53 50 47 46 47 49 51 52 54 55 55 55 56 57 59 59 58 57 56 57 57 58 59 60 61 62 63 62 61 59 56 54 53 51 50 51 52 52 52 51 49 49 51 51 50 51 53 54 54 53 53 53 53 52 53 53 53 52 52 53 54 55 55 55 56 57 56 55 54 51 50 49 49 49 50 51 52 53 55 56 56
48 52 55 55 54 51 47 46 48 50 52 53 55 56 56 57 57 57 57 57 55 53 51 51 52 53 54 55 55 55 56 55 54 53 52 50 48 46 45 46 47 48 48 47 46 46 48 49 49 48 50 52 53 53 52 52 52 52 52 53 54 53 52 52 53 54 55 55 55 55 56 57 57 56 54 52 50 49 49 50 51 52 53 54 55
52 55 57 56 55 52 48 46 48 50 52 53 55 56 56 56 55 54 53 52 51 49 48 48 48 48 48 49 50 50 50 50 49 48 47 46 44 42 41 42 44 44 45 44 44 43 44 45 46 46 47 48 49 50 51 51 51 51 52 52 53 54 53 52 51 52 53 54 55 55 55 55 55 55 56 55 54 53 52 50 50 51 51 53 54
55 57 57 55 52 49 47 47 48 50 52 53 53 54 53 52 51 50 50 49 48 46 45 45 44 44 44 44 44 45 44 44 44 43 42 41 41 40 40 41 42 42 42 43 42 41 40 41 42 42 44 45 45 46 47 49 49 50 51 52 52 52 53 53 52 51 51 52 53 54 54 54 54 53 54 54 54 55 54 53 52 51 51 51 53
57 57 55 51 49 47 47 48 49 50 50 50 50 50 49 49 48 48 47 47 45 44 43 42 42 41 40 39 39 39 38 38 38 38 38 38 38 39 40 41 41 41 40 41 41 39 38 38 38 39 40 41 41 42 43 45 47 48 49 50 51 51 52 52 52 52 50 50 50 51 52 52 53 53 52 52 52 53 54 54 55 54 53 52 52
55 54 50 47 46 46 46 47 47 47 47 47 48 47 47 47 46 45 44 43 43 42 41 40 39 37 36 35 34 34 35 35 35 36 36 36 36 37 38 39 40 39 38 38 38 37 36 36 36 36 36 38 38 39 40 41 43 45 47 49 49 50 50 51 51 51 50 50 49 49 49 50 51 51 51 51 51 52 52 53 54 55 55 55 54
51 49 47 45 45 45 45 45 45 45 45 46 46 46 46 45 44 43 42 41 39 39 38 37 36 34 33 32 32 32 33 33 33 33 33 34 34 34 34 34 34 34 33 33 33 33 32 32 32 32 32 34 35 35 35 36 38 40 43 46 47 47 48 49 49 49 49 49 49 49 49 49 49 50 50 50 50 51 52 53 53 54 55 56 56
48 46 45 45 45 45 45 45 44 44 44 44 45 45 44 43 42 41 40 38 37 36 36 35 34 32 31 30 30 31 31 30 30 30 30 30 30 29 27 26 26 27 26 26 26 28 27 26 26 27 27 29 30 30 31 32 33 35 38 41 42 44 45 46 47 47 47 48 48 48 48 48 48 48 47 48 48 49 51 52 53 53 55 55 55
47 45 45 44 45 45 45 44 44 43 43 43 43 43 42 41 40 39 38 37 36 35 34 33 32 31 30 29 29 29 29 28 28 28 28 27 27 26 24 22 21 22 22 21 21 22 22 21 22 23 24 25 26 26 27 28 30 32 34 36 38 39 40 41 42 43 44 45 45 46 45 46 46 46 46 46 46 48 49 51 51 52 53 54 53
46 45 45 45 45 44 43 43 42 42 41 41 42 42 41 40 39 38 38 37 35 34 32 31 30 30 29 28 28 28 28 27 27 27 27 27 26 25 24 22 21 20 20 19 18 19 19 19 20 21 22 23 24 24 25 26 28 29 31 33 34 35 36 37 38 39 40 41 41 42 42 42 43 43 44 45 46 46 47 47 48 49 50 50 51
44 44 45 45 44 43 43 42 41 40 40 40 41 41 41 39 38 37 37 36 35 34 32 30 29 29 28 28 28 27 28 27 26 27 26 26 25 25 23 22 21 20 19 19 18 18 19 18 19 20 21 21 22 23 23 24 26 27 29 31 32 33 34 35 36 36 37 37 38 39 40 40 41 41 42 44 44 45 45 45 46 45 46 47 49
45 45 44 45 45 43 42 41 40 40 39 39 40 40 40 38 37 36 36 35 34 33 31 30 29 28 28 28 28 27 27 26 26 26 25 24 24 23 22 22 21 19 18 18 17 18 18 18 18 18 19 20 20 21 22 23 24 26 27 28 30 32 33 34 35 35 35 36 37 38 39 39 40 40 42 42 43 43 43 44 44 44 44 45 46
45 45 45 45 45 44 42 41 40 39 38 38 38 39 39 38 37 35 35 34 33 31 30 29 28 27 27 27 27 27 27 26 25 25 24 23 22 21 21 21 20 19 18 17 16 17 17 17 17 17 17 18 19 20 21 22 23 24 25 26 28 30 31 32 33 34 34 35 35 36 37 38 39 40 40 41 41 41 41 42 42 43 43 44 43
45 45 45 45 45 44 43 41 39 37 37 37 37 37 38 37 36 35 34 33 32 31 29 28 27 27 27 27 26 26 26 26 25 25 24 23 22 20 20 19 19 19 18 16 16 16 16 16 16 16 16 17 17 18 20 21 21 22 23 24 25 27 28 29 31 32 31 31 32 33 34 35 36 37 38 39 39 39 39 39 40 40 41 41 41
45 45 45 45 45 44 43 41 39 37 36 36 35 35 36 35 35 34 33 32 31 30 28 27 26 26 26 26 25 25 25 25 25 24 24 23 22 20 19 19 18 18 17 16 16 16 16 15 15 15 15 16 17 19 20 21 20 20 21 22 22 24 25 26 28 29 28 27 29 30 30 31 32 34 35 35 36 36 36 37 37 38 38 37 37
45 45 45 45 45 44 43 41 39 37 37 36 34 33 33 34 33 33 32 31 30 29 28 27 26 25 25 25 24 24 24 24 24 24 23 22 22 21 20 19 18 17 16 16 15 15 15 15 14 14 14 15 16 18 19 19 19 20 20 20 21 22 23 24 26 26 24 24 25 27 28 29 30 31 32 32 33 33 33 34 36 36 36 34 33
46 46 45 44 44 43 43 41 39 37 37 36 35 33 32 32 32 31 31 31 29 28 28 26 26 26 25 25 24 24 23 23 22 22 22 22 22 21 20 19 19 18 16 15 15 14 15 15 14 14 14 14 15 16 17 18 19 20 21 20 20 21 21 23 25 24 22 22 23 25 26 27 28 29 30 30 30 30 30 32 33 33 32 31 31
46 46 45 44 44 43 42 41 39 38 36 35 35 33 32 31 31 30 30 30 29 28 27 26 26 26 25 25 24 24 23 23 22 21 21 20 21 21 21 20 19 18 17 16 15 14 14 14 14 14 14 13 13 14 16 18 19 20 21 21 20 20 21 22 23 22 20 20 21 22 24 25 26 28 29 29 28 28 28 30 30 29 29 28 29
46 45 45 44 42 41 41 40 38 37 36 35 34 33 31 31 30 29 29 29 29 28 27 27 26 26 25 24 24 23 23 23 22 21 20 18 18 20 22 21 20 18 18 17 16 15 14 14 14 13 13 12 11 12 15 17 19 21 22 21 20 21 21 22 22 21 19 18 18 20 21 22 23 25 26 26 26 25 27 28 27 26 25 25 25
46 46 45 43 42 40 39 38 37 36 35 34 33 32 32 31 30 29 29 28 29 29 28 27 27 26 25 24 24 23 23 22 22 22 20 18 16 16 19 21 21 19 18 17 17 16 15 14 14 13 12 11 11 12 14 16 18 20 20 20 20 21 22 23 23 22 20 18 18 18 18 19 20 22 22 22 21 22 23 25 25 24 23 24 24
Wind_Direction
287 285 281 278 277 276 275 273 271 270 268 264 261 257 251 248 246 243 242 242 240 238 238 241 243 243 240 237 242 247 250 251 249 245 242 242 246 253 257 257 260 261 258 257 255 251 252 257 261 261 259 260 261 261 262 264 260 254 250 248 248 249 250 251 250 248 247 247 246 245 243 241 239 236 234 231 229 229 229 229 230 231 231 231 234
282 281 277 275 276 278 279 278 277 276 274 272 268 264 258 251 247 243 239 238 239 239 238 237 238 241 240 238 240 244 247 249 250 249 245 243 245 250 255 255 257 261 261 263 259 250 246 250 255 260 264 265 264 263 262 263 265 261 253 249 248 248 249 250 250 249 248 248 249 248 245 242 237 234 232 231 230 230 231 232 232 233 233 232 233
277 275 274 275 277 279 281 282 282 283 281 278 273 268 262 255 249 244 240 236 236 238 237 234 234 237 237 237 240 243 243 242 242 243 243 243 244 246 252 254 254 256 258 261 261 254 248 247 250 255 260 262 260 259 259 261 264 264 258 253 252 251 250 249 249 251 252 250 247 245 244 242 238 235 233 233 233 233 234 234 234 236 236 235 234
270 270 271 274 277 277 278 279 280 281 281 280 277 272 267 260 253 246 242 238 235 234 235 233 233 234 234 234 236 237 237 238 238 237 237 239 241 243 246 249 251 255 257 259 264 262 256 249 247 247 249 252 253 254 257 261 262 261 259 256 253 252 254 253 251 251 251 250 248 246 242 239 238 237 236 236 237 237 237 237 236 237 238 238 237
263 266 268 269 272 274 275 276 275 275 274 274 275 275 273 269 262 253 246 242 239 236 234 234 233 233 234 237 239 239 239 239 238 238 239 239 239 240 242 244 246 250 254 258 263 265 261 254 248 245 242 242 246 251 256 261 262 260 255 254 254 253 255 257 254 250 248 249 250 249 245 242 242 241 238 238 239 239 239 239 239 239 239 240 239
259 261 263 266 269 272 275 276 277 275 274 275 276 278 279 278 276 268 258 252 247 242 239 237 236 235 236 238 241 243 242 239 235 235 239 242 242 240 239 240 242 246 249 253 258 259 259 257 253 251 248 243 242 246 250 254 257 256 253 253 255 255 254 255 254 251 250 248 247 249 248 247 246 243 240 240 241 241 240 239 239 239 240 241 241
255 259 263 268 272 275 280 281 284 286 286 289 288 288 288 285 284 280 274 268 261 255 248 243 241 239 239 238 240 243 242 241 241 240 241 242 243 242 240 240 240 240 242 246 252 254 256 256 254 254 254 251 247 244 245 248 249 248 248 251 253 252 251 251 254 255 253 250 248 247 248 246 242 240 241 243 243 243 242 241 241 240 240 241 242
254 259 265 271 278 287 293 296 299 304 305 306 305 301 298 293 292 290 288 285 279 277 273 263 251 245 241 238 238 243 245 246 249 249 247 245 243 241 240 241 240 239 240 243 247 250 252 254 256 256 255 255 253 249 247 248 246 241 241 244 247 249 251 250 252 254 252 252 252 248 247 247 245 242 243 244 245 244 242 242 241 241 241 242 243
267 272 279 288 301 311 319 318 317 318 316 315 316 315 312 307 304 302 300 298 296 292 285 284 282 267 252 243 241 244 248 249 249 249 247 246 247 247 245 243 242 241 242 243 245 247 248 250 254 256 256 255 255 254 252 250 248 242 239 239 241 248 253 253 252 254 254 254 254 249 245 246 246 244 243 243 245 245 244 243 242 242 242 242 242
297 303 305 307 316 325 332 332 328 328 328 328 328 325 322 319 314 310 307 305 303 301 298 291 288 286 281 267 253 248 249 251 252 253 252 248 248 251 251 248 246 244 244 245 245 246 248 251 251 250 251 252 252 253 253 252 250 246 242 238 237 241 248 253 255 256 256 254 252 248 243 242 244 244 244 244 247 249 248 247 245 244 245 245 244
320 322 323 321 322 324 327 328 327 327 328 330 332 330 329 325 320 316 312 309 307 304 303 300 296 291 285 283 278 267 259 255 254 257 260 258 255 256 255 253 250 247 247 249 248 246 246 248 249 246 246 248 250 250 250 249 248 249 248 244 239 236 238 245 251 252 252 249 247 244 241 240 242 245 246 247 250 252 252 251 250 249 248 247 245
327 328 329 329 328 327 327 327 326 325 324 323 323 325 328 328 326 323 317 312 309 306 303 302 300 298 294 289 285 280 274 268 262 259 260 261 264 265 262 259 256 251 249 250 251 250 248 247 247 247 246 248 251 251 249 247 246 247 248 247 245 241 237 238 242 243 244 245 244 242 240 239 241 243 244 245 246 249 251 251 250 250 250 249 248
329 329 329 329 329 328 327 327 326 324 323 322 321 321 322 322 323 324 323 319 313 309 306 303 301 299 298 296 292 288 282 277 272 267 263 262 264 265 263 262 263 261 256 254 252 250 250 248 248 248 248 249 251 252 250 250 249 248 247 246 245 245 243 242 242 241 240 243 245 244 241 239 238 240 242 243 243 244 245 246 246 246 247 248 248
332 332 331 331 330 329 329 327 326 324 322 321 319 319 318 318 318 319 320 320 318 313 308 304 302 300 298 297 294 292 288 284 279 273 269 265 263 262 262 263 266 267 265 263 259 255 252 250 248 248 249 250 252 251 250 250 252 252 251 247 245 244 244 244 245 245 243 242 244 245 244 242 239 238 240 242 242 242 243 244 244 244 244 244 244
334 335 335 335 334 332 331 329 327 326 323 321 319 317 316 315 314 315 315 316 316 314 309 303 300 299 298 296 294 291 288 285 282 278 273 268 264 262 260 260 262 265 266 266 264 261 258 256 252 250 249 249 252 253 251 251 252 253 251 248 245 244 243 241 241 243 244 243 243 245 246 247 244 240 240 241 242 243 243 243 244 244 244 244 244
336 336 336 336 335 333 333 331 329 328 326 325 323 321 319 316 313 312 311 312 312 312 309 305 299 294 293 292 292 290 286 282 279 278 276 271 266 262 259 258 258 259 261 263 263 262 260 259 257 255 253 253 255 256 255 253 252 252 251 247 244 243 243 241 239 240 242 243 243 244 244 246 247 245 243 243 244 244 243 242 242 242 242 244 245
334 334 334 334 334 333 332 332 331 330 328 327 326 324 322 319 317 314 311 310 309 309 308 305 302 296 291 287 287 287 286 282 278 274 273 273 270 266 262 260 258 257 256 257 259 261 260 259 259 258 258 257 256 256 256 255 253 252 251 249 245 243 242 241 240 240 242 243 243 243 243 243 244 245 246 245 244 244 244 244 243 242 241 242 244
333 333 333 332 332 332 330 329 328 328 327 326 325 324 322 320 318 316 314 312 310 309 307 305 303 300 296 291 286 283 282 283 282 278 274 272 272 271 268 265 261 259 257 255 255 256 257 258 257 256 256 256 254 253 252 254 254 252 251 250 248 245 242 240 238 239 241 243 244 246 246 245 243 242 244 246 245 244 244 245 245 244 242 242 243
331 330 329 328 328 327 326 324 324 323 323 323 323 322 318 316 316 315 314 313 312 311 309 307 304 302 300 297 293 288 282 279 280 280 279 277 275 274 273 271 267 264 261 258 255 254 254 255 255 254 253 253 252 251 250 250 252 253 251 249 249 247 245 241 239 238 238 240 243 245 247 248 246 242 241 243 244 243 243 244 245 246 246 244 244
325 324 324 324 324 323 321 320 319 319 318 319 320 317 313 312 312 312 312 312 311 310 309 308 306 303 300 298 296 293 289 283 279 277 277 277 278 278 277 274 272 269 266 264 261 257 255 254 254 253 252 252 251 250 249 249 250 251 251 249 248 246 245 244 242 241 240 240 241 244 246 248 249 247 243 241 241 242 242 243 245 247 249 248 246
322 322 322 323 322 320 319 318 317 317 317 318 317 314 311 309 308 309 308 308 309 309 309 307 306 304 301 298 295 293 291 288 284 280 276 275 275 277 278 277 275 273 271 269 267 264 259 255 254 253 252 251 250 249 249 248 248 248 249 250 249 247 245 244 243 243 243 243 244 244 245 246 248 249 249 244 240 239 241 243 245 248 250 249 247
320 322 322 323 321 319 318 318 318 319 320 319 316 313 310 307 307 307 306 306 307 308 309 307 306 304 303 300 297 294 291 289 287 285 281 277 275 275 276 277 276 275 274 272 270 268 265 261 256 254 253 252 251 250 249 248 248 247 246 247 248 248 247 246 244 243 242 244 246 247 247 246 245 246 249 249 244 240 239 240 243 247 250 250 248
320 321 322 321 319 317 317 317 318 318 318 316 314 311 309 307 307 306 306 307 307 308 309 308 306 304 303 302 300 297 293 291 288 286 284 281 278 276 276 276 275 275 274 273 272 270 268 265 261 257 254 252 251 250 249 248 248 247 246 245 245 247 247 247 246 245 244 243 245 247 249 250 248 245 246 249 248 245 241 239 238 241 246 249 250
321 320 319 317 315 315 315 315 316 316 314 313 311 310 308 307 308 308 308 308 307 307 308 307 305 305 305 304 302 301 298 294 292 289 287 285 282 279 277 276 276 275 274 273 271 270 268 266 264 261 258 254 252 251 250 249 248 247 247 245 244 244 245 246 247 247 246 245 244 245 248 250 250 247 244 245 248 248 247 243 239 238 241 243 247
319 318 316 314 314 314 315 316 316 315 313 311 310 310 308 307 306 306 307 307 305 304 303 302 302 302 303 303 301 300 298 297 298 297 294 291 287 285 281 278 276 275 274 272 271 269 267 265 263 261 260 257 254 252 250 250 249 248 247 246 245 244 244 244 245 245 246 246 245 244 246 247 248 247 245 243 244 247 248 247 243 240 240 241 242
316 315 314 313 313 315 316 316 316 314 313 312 311 311 308 306 305 304 304 304 302 301 299 298 297 297 298 298 297 295 294 296 298 300 299 297 293 290 287 283 278 275 273 272 270 268 265 263 261 260 259 258 256 254 251 250 249 249 248 246 246 245 245 244 244 244 244 245 245 244 244 244 244 245 245 243 243 244 246 246 244 242 241 242 242
313 312 312 313 314 315 316 315 313 311 311 311 311 310 307 305 304 303 303 301 300 298 297 296 295 293 291 291 290 290 290 292 293 295 297 297 295 293 291 288 284 278 273 271 270 267 264 262 260 258 257 256 256 255 253 251 249 249 249 247 246 246 245 245 244 244 243 243 244 244 244 243 242 243 243 243 242 242 243 245 245 244 243 243 244
313 312 313 314 314 314 314 311 309 308 308 309 309 308 306 303 302 301 301 299 297 296 295 294 292 290 288 287 287 287 287 288 290 292 293 293 292 291 290 289 287 283 277 273 271 267 263 260 258 256 254 254 254 254 253 252 250 248 248 248 247 246 245 245 245 245 245 244 244 244 243 243 242 242 243 243 242 241 241 242 243 244 244 243 243
314 313 313 313 312 311 310 308 306 306 306 307 307 306 304 303 302 301 300 298 296 294 293 292 291 289 288 287 287 287 288 289 289 290 290 289 288 287 286 285 284 284 281 277 274 269 263 258 255 254 253 252 251 251 251 252 251 249 247 247 247 247 246 245 244 244 245 245 245 245 244 244 243 242 242 243 243 242 242 242 241 242 242 242 242
314 313 312 312 311 310 308 307 307 308 309 309 308 306 304 303 301 300 299 298 296 294 294 292 291 290 289 288 288 288 289 290 290 290 289 287 286 284 283 282 281 281 281 279 277 273 266 259 254 252 251 250 250 250 249 250 251 251 249 246 246 246 246 246 245 244 244 245 245 246 246 246 245 243 242 241 242 243 243 243 243 242 242 242 243
313 312 311 312 313 312 312 311 312 312 312 310 309 307 305 303 301 300 298 297 296 295 295 294 292 290 289 288 288 288 289 289 290 290 289 287 285 283 281 279 278 278 278 278 276 274 269 262 255 251 249 248 248 248 248 248 248 250 250 248 246 245 245 246 246 245 245 244 245 245 246 246 245 245 244 243 242 241 242 244 244 244 244 244 244
311 311 313 315 316 317 316 314 313 312 310 309 308 307 306 305 303 301 300 299 298 298 295 293 293 292 290 289 288 288 288 289 290 290 289 288 286 283 281 278 277 276 276 274 273 272 270 266 259 252 249 247 246 245 246 246 246 247 249 250 248 246 244 244 245 246 246 246 246 246 246 246 246 246 246 245 244 243 242 242 243 244 245 245 245
311 312 315 317 318 318 315 310 308 308 308 308 307 307 307 306 304 303 302 302 301 300 296 293 292 291 290 290 290 289 289 289 289 289 289 288 286 284 281 278 276 275 275 273 271 270 269 268 264 257 250 247 245 244 244 244 245 246 246 248 248 248 246 244 244 244 245 246 246 246 246 247 247 247 246 246 246 245 244 243 242 242 243 245 245
311 314 316 317 317 316 313 309 308 308 308 307 307 307 307 306 305 304 304 304 303 302 299 295 293 292 291 290 290 290 289 289 289 288 288 287 286 284 281 277 275 274 274 274 273 270 268 266 265 260 254 248 245 244 243 243 243 244 245 246 246 247 247 247 245 244 243 245 246 247 247 247 247 248 248 247 247 247 246 245 244 243 243 243 245
312 314 315 316 315 314 313 312 311 310 309 309 308 307 306 306 306 306 305 305 305 304 302 300 298 296 294 293 292 290 290 290 289 288 287 285 284 282 279 277 275 274 275 275 274 271 267 264 263 260 255 250 245 242 242 241 242 243 244 244 244 245 246 247 247 246 244 244 244 245 247 247 248 248 248 248 248 248 248 247 246 245 245 244 244
311 313 314 314 314 313 313 313 312 311 310 310 309 308 308 308 308 307 307 307 306 306 305 303 301 300 298 297 295 294 294 293 291 290 288 285 283 281 279 278 278 277 277 276 274 272 269 265 261 258 255 250 245 242 240 239 240 241 243 243 244 244 245 245 246 247 247 246 245 244 245 246 247 248 248 248 248 248 248 248 247 247 247 246 246
311 312 313 314 314 314 313 312 312 312 312 311 311 311 311 310 310 309 308 307 307 306 305 303 303 302 302 301 301 299 299 297 295 294 291 289 286 283 281 280 279 278 276 274 272 271 268 265 261 257 253 248 245 242 240 238 238 240 241 242 243 244 244 245 246 247 248 248 247 246 246 245 246 246 247 248 248 249 249 248 248 248 248 247 247
312 313 315 315 315 314 314 314 314 314 314 314 313 313 313 312 312 311 310 309 308 307 305 305 305 305 304 305 304 303 302 301 300 299 297 295 292 289 286 283 281 277 274 271 270 268 265 262 258 254 250 247 244 242 240 239 238 238 240 241 242 243 244 245 246 246 247 248 249 249 249 249 248 248 247 248 248 249 249 249 249 249 248 247 247
314 316 317 317 316 316 316 315 315 315 315 315 314 314 314 314 313 312 311 311 309 308 307 307 307 307 307 307 307 306 306 305 305 305 304 302 301 298 295 290 284 280 276 272 269 265 261 256 253 251 249 247 245 242 241 240 239 239 240 240 241 242 243 245 246 246 247 248 249 250 250 251 251 251 250 250 249 249 249 249 249 249 249 249 248
317 318 319 318 317 317 317 316 316 316 316 315 314 314 315 316 316 315 314 312 311 310 310 309 309 309 309 309 309 308 308 308 308 308 307 307 305 303 300 295 289 284 280 275 269 264 258 252 250 249 247 246 246 243 242 241 240 240 241 241 241 241 242 243 245 246 247 248 248 249 250 250 251 252 252 251 251 250 250 250 250 250 250 251 250
318 319 319 319 318 317 316 316 317 316 316 316 316 316 318 320 319 317 315 314 313 312 311 311 311 311 310 309 309 308 308 308 308 308 308 308 307 305 302 298 293 288 284 278 271 265 260 254 250 249 247 246 245 244 243 243 242 242 243 243 243 243 243 243 244 244 245 246 248 249 250 250 251 251 251 251 251 252 252 252 252 252 252 251 251
320 320 320 318 317 317 317 317 317 317 317 317 317 317 319 321 320 319 317 315 314 314 313 313 312 311 310 309 308 307 307 307 307 307 307 307 306 305 303 301 298 293 289 283 276 269 264 258 253 250 248 246 246 246 244 243 243 243 244 245 246 246 246 246 245 243 244 245 247 249 250 250 251 251 251 251 252 252 253 253 253 253 253 252 251
322 321 320 319 318 318 318 318 318 318 318 318 317 317 319 320 320 319 317 316 316 315 314 314 313 312 310 308 307 306 306 306 307 307 307 307 306 305 305 304 301 297 293 287 281 274 268 261 255 252 250 249 248 249 248 245 244 244 244 245 246 247 248 248 248 247 246 246 247 248 249 250 250 251 251 252 252 253 254 254 254 254 254 253 252
322 321 321 319 318 318 318 318 318 318 318 318 317 316 317 318 319 319 318 317 317 315 315 315 313 312 310 308 307 306 306 307 307 307 307 307 306 306 305 303 301 299 296 290 284 278 272 266 259 254 252 252 250 251 251 249 247 246 245 245 245 246 248 249 249 249 248 248 248 248 248 249 250 250 251 252 252 253 254 254 255 255 255 254 254
321 321 321 319 318 318 318 318 318 317 317 317 316 315 315 316 318 318 318 318 318 317 316 316 315 313 310 309 308 307 307 308 308 308 308 307 305 305 304 302 300 298 296 293 288 282 277 272 265 258 254 253 252 251 250 249 248 247 246 246 245 246 248 248 249 249 249 249 249 249 248 248 248 249 250 251 252 253 254 254 254 254 254 254 254
320 321 320 319 318 318 317 318 318 318 317 316 315 314 314 314 316 316 317 319 319 319 319 319 317 314 312 311 310 309 308 309 308 308 307 306 305 305 303 301 300 299 298 296 292 287 282 276 271 265 259 254 251 250 250 250 249 247 246 246 246 247 248 249 250 250 250 250 251 250 249 248 247 247 247 248 250 251 252 253 252 252 252 252 252
320 320 319 318 317 317 317 318 319 318 317 316 315 314 312 312 314 315 316 318 319 320 322 323 321 318 316 314 313 312 310 309 309 308 307 306 306 306 304 302 300 299 299 297 293 290 287 281 275 270 263 257 253 251 252 252 251 249 247 245 246 248 249 250 252 252 251 250 251 251 250 248 246 246 245 246 247 248 250 250 250 250 249 247 247
319 318 317 317 317 317 317 317 318 318 317 315 314 314 312 312 312 313 314 316 317 319 322 324 323 322 320 319 317 315 312 311 310 309 308 307 306 305 304 302 301 300 299 295 292 290 288 285 281 276 268 263 258 255 255 253 251 251 249 245 245 247 248 250 252 253 251 248 248 249 249 247 246 245 245 246 246 247 248 249 249 248 246 244 243
317 316 316 316 316 316 316 316 317 317 316 314 314 314 312 311 312 312 312 313 315 317 320 322 322 322 321 321 320 317 314 313 312 310 309 308 307 305 304 302 302 301 299 295 292 289 286 283 283 279 274 269 262 258 256 253 251 250 248 245 242 243 246 249 251 252 250 246 245 246 246 245 245 245 245 246 246 246 248 248 248 247 246 244 242
316 315 315 315 315 315 315 315 315 315 315 315 314 314 313 312 312 313 313 313 313 315 317 319 319 320 320 320 320 318 316 314 313 311 309 307 306 305 304 303 301 300 298 297 294 291 287 283 280 278 276 273 266 258 255 253 251 250 249 246 242 241 243 246 249 250 248 243 242 243 242 242 243 244 245 246 245 246 247 248 247 246 245 245 243
316 315 314 314 314 315 314 314 314 314 315 315 315 314 313 313 313 314 314 314 313 314 315 317 317 317 318 318 317 317 316 314 313 312 310 308 305 303 301 301 301 299 298 296 295 293 290 286 282 278 276 271 264 258 254 253 253 253 253 252 248 243 243 245 248 250 248 243 240 240 240 240 241 242 243 244 243 244 246 248 248 245 243 242 241